Vorticity
nan nan nan nan nan nan nan nan nan nan nan nan nan nan nan nan nan nan nan nan nan nan
nan 10 14 13 10 11 9 12 13 11 10 8 8 9 7 8 11 9 9 11 6 nan
nan 11 10 11 11 11 11 12 13 13 11 11 11 9 7 7 10 9 9 14 11 nan
nan 9 9 9 9 10 11 9 9 9 10 10 9 10 10 8 10 8 7 12 11 nan
nan 11 9 9 10 10 8 9 9 8 7 9 10 10 11 11 11 12 10 10 12 nan
nan 13 10 9 9 11 9 9 9 9 9 10 10 10 11 11 12 14 14 14 13 nan
nan 12 11 10 10 9 8 8 9 9 10 11 11 11 11 12 11 12 14 14 15 nan
nan 13 14 12 10 9 9 9 9 9 10 10 10 11 11 12 12 12 12 15 17 nan
nan 10 14 19 15 10 8 9 10 10 10 8 11 13 8 8 11 12 11 11 17 nan
nan 10 9 15 21 16 8 9 9 9 9 9 12 13 9 7 8 10 11 9 7 nan
nan 10 10 11 10 15 19 12 9 10 10 8 12 13 10 8 8 11 12 12 11 nan
nan 10 10 9 9 10 15 16 17 13 13 11 15 14 7 6 7 8 8 12 14 nan
nan 11 10 9 13 13 11 17 15 10 9 16 14 19 20 7 7 8 7 8 13 nan
nan nan nan nan nan nan nan nan nan nan nan nan nan nan nan nan nan nan nan nan nan nan
CAPE
564 639 572 447 178 146 115 136 82 11 0 0 0 1 4 3 1 0 0 0 3 0
709 762 583 348 138 205 110 115 115 49 11 0 0 1 5 4 4 4 1 1 0 2
483 377 185 57 6 39 56 24 10 23 14 1 1 1 1 3 13 20 15 1 1 5
183 144 65 14 5 5 0 0 0 0 0 0 0 1 2 2 1 1 8 2 2 2
193 97 4 6 21 0 0 0 0 0 0 0 0 0 1 3 1 1 12 2 5 8
0 1 0 0 13 0 0 0 0 0 0 1 1 1 1 1 1 1 3 3 3 7
0 0 0 0 0 0 0 0 0 0 0 0 0 2 5 5 3 9 9 12 23 3
0 0 0 0 0 0 0 0 0 0 0 0 0 1 3 5 7 7 1 1 0 0
0 0 0 0 11 0 0 0 0 0 0 0 0 0 0 0 0 0 0 1 1 0
0 0 0 0 0 12 1 1 1 0 0 0 0 0 0 0 0 0 1 1 1 1
3 0 0 0 0 0 2 0 0 0 0 0 0 0 0 1 0 0 0 0 0 0
3 2 0 0 0 1 1 1 0 0 0 0 0 0 2 1 1 1 1 1 1 0
3 3 2 1 0 1 0 1 0 0 0 1 1 1 1 0 0 0 0 0 0 0
2 2 3 2 1 1 0 0 0 0 0 0 0 0 1 1 0 0 0 0 0 0